Main page
METAR-TAF:

METAR-TAF

Airports :

Oil platform

J6-a, Netherlands

latitude: 53-49-27N, longitude: 2-56-43E, elevation: 34 m

Current weather observation

The report was made 23 minutes ago, at 23:25 UTC
Wind 26 kt from the West
Temperature 13°C
Humidity 77%
Pressure 1012 hPa
Visibility 10 km or more

METAR: EHJA 252325Z AUTO 28026KT 9999 NSC 13/09 Q1012

Time: 01:48 (23:48 UTC)


TAF: missing

Weather observations and forecasts of more than 4000 airports (METAR and TAF reports).

The available stations are represented by yellow and red dots on the map.

Hover mouse over dot to see the name of the station.

Then click to see weather observations and forecasts.

To change the map : click on the green buttons with a black cross to zoom in, on the green button with a dash to zoom out, or on the green arrows for adjacent maps.


METAR-TAF: